Regional Weather Roundup
Issued by NWS

Home | Current Version | Previous Version | Graphics & Text | Print | Product List | Glossary Off
Versions: 1 2 3 4 5 6 7 8 9 10 11 12 13 14 15 16 17 18 19 20 21 22 23 24 25 26 27 28 29 30 31 32 33 34 35 36 37 38 39 40 41 42 43 44 45 46 47 48 49 50

000
ASUS43 KTOP 200859
RWRKS

WEATHER ROUNDUP FOR KANSAS
NATIONAL WEATHER SERVICE GOODLAND KS
400 AM CDT FRI APR 20 2018

NOTE:  "FAIR" INDICATES FEW OR NO CLOUDS BELOW 12,000 FEET WITH NO
SIGNIFICANT WEATHER AND/OR OBSTRUCTIONS TO VISIBILITY.

KSZ001>006-013>018-027>032-041>047-201000-
NORTHWEST KANSAS

CITY           SKY/WX    TMP DP  RH WIND       PRES   REMARKS
GOODLAND       CLOUDY    40  27  59 SE18G28   30.14F WCI  31
HAYS           CLOUDY    39  27  62 SE8       30.30R
HILL CITY      CLOUDY    36  27  69 E5        30.28S
RUSSELL        CLOUDY    40  29  64 SE13      30.29F WCI  32
$$

KSZ061>065-074>080-084>089-201000-
SOUTHWEST KANSAS

CITY           SKY/WX    TMP DP  RH WIND       PRES   REMARKS
DODGE CITY     CLOUDY    44  27  51 SE17      30.25S
GARDEN CITY    CLOUDY    45  28  51 SE22G32   30.20F
GREAT BEND     CLOUDY    40  29  64 SE7       30.32R
LIBERAL        MOCLDY    45  28  51 SE17      30.20F
$$

KSZ066>073-081>083-090>101-201000-
SOUTHEAST KANSAS

CITY           SKY/WX    TMP DP  RH WIND       PRES   REMARKS
CHANUTE        CLOUDY    41  31  67 E6        30.38R
COFFEYVILLE    CLEAR     37  31  78 NE3       30.37R
HUTCHINSON     PTCLDY    42  31  64 E9        30.32F
MEDICINE LODGE   N/A     43  29  57 VRB3      30.32R
NEWTON         PTCLDY    37  28  70 E8        30.34F
PARSONS        CLEAR     37  32  82 CALM      30.38R
WICHITA INTL   PTCLDY    42  32  67 E7        30.33S
WICHITA JABRA  CLOUDY    35  29  78 NE5       30.34S
WICHITA MCCONL CLOUDY    42  30  61 E8        30.33S
WINFIELD       PTCLDY    41  32  70 E6        30.34S
$$

KSZ007>012-019>026-033>040-048>060-102>105-201000-
NORTHEAST KANSAS

CITY           SKY/WX    TMP DP  RH WIND       PRES   REMARKS
CONCORDIA      PTCLDY    33  25  72 E5        30.35S
EMPORIA        CLOUDY    35  29  78 E8        30.36F
LAWRENCE       CLOUDY    30  26  85 CALM      30.41R
MANHATTAN      CLOUDY    35  28  75 CALM      30.37S
OLATHE IND     CLOUDY    41  29  62 E5        30.41S
OLATHE EXE     CLEAR     41  29  62 E6        30.40S
SALINA         CLOUDY    39  30  70 SE7       30.35S
TOPEKA BILLARD CLOUDY    35  29  78 E3        30.40R
TOPEKA FORBES  PTCLDY    37  29  72 E7        30.39R
$$




USA.gov is the U.S. government's official web portal to all federal, state and local government web resources and services.